CZ-3C DEB, 39356

Orbit data source: Space-Track

CZ-3C DEB, 39356 is space debris in HEO originally from a launch on Sun, 31 Oct 2010 UTC launched from the Xichang Space Center, China (XSC). Debris objects in space refer to the collection of defunct objects orbiting the Earth. Examples of debris include non-operational satellites, rocket bodies, and fragments generated from explosions, collisions, or faulty payload assembly.

Loading next visibility...
Identifier
39356, 2010-057W
Orbit
HEO
Country
Flag of CNCN / PRC
Related business
Manufacturer
CALT
Mission
Spacecraft
Bus & Motor
Unknown
Mass
Unknown
Launch date (UTC)
2010-10-31 (15 years ago)
Launch vehicle
Unknown
Launch site
Xichang Space Center, China (XSC)
Object type
Payload
Rocket body
Debris
Shape & HBR
Unknown shape, 0.3 m
Radar Cross Section
Medium (>0.1 m² and <1 m²)

Expand to show TLE details & history
Last TLE update: 1 day ago

TLE from 1 day ago
0 CZ-3C DEB
1 39356U 10057W   25301.26278159  .00001390  00000-0  53846-2 0  9991
2 39356  20.8416  34.9970 7143500 267.8199  16.6049  2.35141266100774
Epoch: 2025-10-28T06:18Z
TLE epoch observation values (Epoch: 2025-10-28T06:18:24.329Z)
Latitude
0.00003°
Longitude
-96.51412°
Altitude
5,677.982 km
Speed
7.031 km/s
True Right ascension
02h 19m 45s
True Declination
0° 00' 00"
Sunlit
Object was in full shadow at epoch
Visualization orbit readout
Latitude
Unknown
Longitude
Unknown
Altitude
Unknown
Speed
Unknown
Apparent Right ascension
Unknown
Apparent Declination
Unknown
Sunlit
N/A
Visualization observer readout
Local Sidereal Time
02:24:35
Azimuth
Unknown
Elevation
Unknown
Doppler factor
Unknown
Orbital elements
Apogee altitude
34,582.019 km
Perigee altitude
446.764 km
Semi-major axis
23,892.529 km
Eccentricity
0.71435
Inclination
20.8416°
RAAN
34.997°
Arg. of periapsis
267.8199°
True anomaly
92.36937°
Mean anomaly
16.6049°
Eccentric anomaly
46.09308°
Mean motion
0.58769 °/min
Orbital period
612.57 mins
BSTAR
0.0053846
Loading maneuver chart data...
Computing Atmospheric mass density...
Loading historical data...
Loading historical data...
Loading historical data...
Loading historical data...
Loading historical data...
Loading historical data...
Loading historical data...

Documentation

Showing up to 5 results
|